Starlink 30710

operational
NORAD ID: 57938 Int'l Des: 2023-148 Owner: SPXS Country: US Constellation: starlink
LEOCIRCULAR

Über Starlink 30710

Beschreibung wird geladen...

Live-Position

3D-Globus wird geladen...

Nächste Überflüge

Höhenverlauf

Altitude vs Time

uPlot chart will show altitude changes over time

Zweizeiliger Elementsatz

1 57938U 23148D 25352.49384412 -.00000230 00000-0 43635-5 0 9994
2 57938 53.1608 31.3669 0000941 95.1958 264.9150 15.30192799126121
Epoch: 18. Dez. 2025 • Age: 9 hours

Aktueller Status

Höhe 481.6 km
Geschwindigkeit 7.62 km/s
Subsatellitenpunkt -21.76°S, 169.62°W
Startdatum 25. Sept. 2023
Alter 2.2 years
Typ internet

Technische Details

Klassifizierung Payload
Masse 730.00 kg
Trockenmasse 700.00 kg
Gesamtmasse 730.00 kg
Länge 0.30 m
Durchmesser 4.10 m
Spannweite 29.00 m
Form Box + pan
Hersteller SPXS
Bus-Typ Starlink V2M
Phasenstatus In Orbit
Besitzer/Staat SPXS/US

Große Konstellationen

Loading constellations...